Theta_e
322 323 323 323 324 324 325 325 325 325 325 325 327 331 331 332 332 332 332 332 331 332 333 333 333 333 333 334 334 332 331 329 327 326 324 331 336 339 339 339 338 337 329 310 308 308 305 303 308 304 304 305 307 309 309 309 308 310 304 296 296 294 295 297 297 296 298 297 297 295 297 301 299 301 304 306 306 305 306 308 309 310 312 313 313 314 318 321
320 322 323 322 324 324 325 324 324 325 325 325 326 328 331 331 332 332 332 331 331 331 331 332 333 333 333 333 333 332 330 328 324 325 326 336 339 339 341 340 338 336 323 313 307 304 305 303 303 302 304 303 307 309 312 308 309 302 298 299 299 295 299 300 299 298 300 305 297 297 296 300 300 301 302 304 301 304 305 305 307 311 312 313 317 318 320 321
320 321 322 322 322 324 324 324 323 325 325 325 325 326 329 330 331 331 331 330 330 331 331 331 332 332 332 332 332 331 329 325 324 320 328 338 340 338 340 339 336 331 315 311 308 306 306 304 302 303 301 301 302 307 308 307 307 302 303 299 299 301 301 301 299 300 299 299 296 298 297 298 301 302 302 304 300 302 303 302 304 308 309 310 314 317 318 320
318 320 321 322 322 323 324 324 324 324 325 325 325 325 327 328 330 330 330 330 330 330 330 331 331 331 331 331 332 330 328 322 316 323 332 338 340 339 340 338 334 324 314 312 310 308 306 305 305 303 302 298 299 306 306 307 305 302 303 299 302 304 304 306 300 299 298 298 298 296 295 298 299 301 303 300 302 302 303 303 305 305 308 311 312 316 317 318
317 319 320 321 321 323 323 324 325 324 325 325 325 325 325 327 328 330 330 330 330 330 330 331 330 331 330 331 330 331 321 310 310 326 330 337 339 340 339 336 330 315 315 310 310 309 308 305 303 301 302 299 299 302 303 306 306 302 301 301 303 302 305 307 303 300 295 295 296 294 299 299 300 301 301 301 301 301 304 307 306 306 307 311 314 316 317 318
317 317 319 319 321 322 322 323 325 325 324 325 324 325 325 326 328 329 329 330 330 330 330 329 330 329 330 331 328 326 314 293 316 322 334 336 338 340 337 332 327 315 314 312 309 308 308 306 305 303 300 299 299 299 300 304 307 301 300 299 300 301 304 303 300 299 295 297 295 296 298 298 300 299 298 301 303 304 303 305 306 308 308 312 318 317 317 317
317 317 318 319 319 320 321 322 323 324 324 324 324 325 325 325 327 328 329 330 330 329 329 329 329 330 329 328 326 321 311 307 312 320 334 336 338 338 336 333 326 314 313 310 308 309 306 304 304 299 299 298 297 299 301 304 303 301 301 299 303 300 304 300 300 295 294 297 297 296 297 298 297 299 297 300 304 305 301 297 297 298 310 316 317 317 318 318
316 317 318 318 319 320 320 322 322 323 323 324 324 325 326 326 326 327 328 329 329 329 327 328 330 329 328 322 316 312 311 309 312 316 334 336 335 335 329 318 316 314 312 310 308 308 306 304 305 300 300 303 300 301 301 302 302 301 301 299 302 300 301 301 295 293 294 296 296 297 298 297 297 297 296 299 304 305 302 303 306 310 314 315 317 317 318 318
316 317 318 318 319 319 319 321 322 322 322 323 324 325 326 326 326 327 328 329 329 328 329 329 328 329 327 321 313 310 309 316 315 316 331 333 332 328 320 316 316 314 310 309 310 309 310 304 305 305 304 301 301 301 299 302 301 301 302 299 301 302 300 298 301 295 295 295 296 297 296 294 294 297 298 300 301 301 300 303 310 312 313 314 316 317 317 318
316 316 317 318 319 319 319 320 321 322 322 323 323 323 324 325 325 327 328 328 329 328 328 326 328 328 323 317 314 305 317 320 317 319 330 331 330 324 323 320 317 313 310 307 308 309 313 306 309 306 304 302 300 301 298 303 304 301 302 302 302 303 303 297 304 298 294 297 296 297 295 295 298 296 296 298 301 299 298 301 310 312 312 314 315 316 317 318
315 315 316 317 318 319 319 320 321 321 322 322 322 322 323 324 324 325 327 327 328 328 328 327 327 326 319 319 309 305 318 321 318 320 327 330 328 325 324 319 320 316 312 307 309 311 314 309 307 307 308 303 301 299 300 302 301 300 302 300 300 299 300 297 298 297 297 303 294 297 296 295 297 296 297 300 302 297 300 298 307 309 311 313 315 316 317 317
315 315 316 317 318 319 319 320 320 321 320 322 321 322 323 324 324 324 325 326 327 328 329 328 326 325 321 316 311 311 317 317 319 324 328 329 327 327 325 322 323 319 313 307 308 309 310 309 311 311 305 306 299 298 300 300 304 301 301 299 296 298 300 298 301 300 300 301 294 295 297 296 296 296 298 299 298 299 299 298 300 308 310 311 313 315 316 317
315 315 316 316 317 318 319 320 319 321 321 322 322 322 323 324 324 324 325 325 326 327 328 328 326 323 318 308 314 317 316 320 324 326 327 329 326 324 322 319 322 320 316 312 310 309 308 310 313 308 305 304 299 299 302 303 302 300 299 298 297 297 296 298 296 294 299 301 294 299 296 296 301 301 298 300 301 299 300 300 299 300 305 308 311 313 315 317
315 315 316 316 317 318 318 319 319 320 322 322 322 321 323 324 324 325 325 324 326 326 327 327 323 321 316 311 316 317 317 321 326 324 322 326 326 320 321 316 314 312 311 310 307 308 309 309 312 307 306 302 301 305 301 299 299 298 296 297 293 294 292 296 297 295 299 297 294 300 296 297 300 301 299 299 299 301 302 302 301 300 300 302 306 310 313 315
314 315 316 316 317 317 318 319 319 320 321 322 322 322 322 323 324 324 325 324 326 326 326 326 321 316 309 311 317 320 324 323 321 320 325 325 321 320 318 318 313 311 310 311 309 308 309 310 310 306 303 302 303 302 294 295 292 294 295 292 291 293 292 293 295 297 300 297 296 299 293 296 301 303 302 300 298 298 300 302 302 301 300 299 301 303 307 311
314 315 316 316 316 317 318 318 318 320 321 320 322 322 322 323 323 324 325 323 326 326 325 318 315 313 307 306 313 325 319 315 315 322 322 325 323 320 321 315 312 312 313 310 311 310 308 309 305 301 301 302 300 295 291 294 294 294 295 287 289 288 292 294 297 293 295 296 298 299 295 290 296 297 298 297 299 297 299 300 301 301 301 300 299 300 301 303
313 314 315 316 316 316 317 318 319 319 320 320 321 322 322 321 322 323 324 324 322 323 319 311 313 314 302 311 318 312 311 312 317 318 319 325 324 319 316 314 312 311 313 313 312 312 309 307 303 302 299 297 296 297 292 290 289 292 291 292 286 290 290 291 294 295 294 296 295 296 295 298 300 298 297 295 299 298 298 299 300 301 301 301 301 301 301 301
314 313 315 315 316 315 317 317 319 319 320 320 320 320 320 322 323 322 320 320 317 315 313 311 312 307 304 308 304 308 316 312 316 318 318 316 322 319 318 313 313 313 311 305 307 308 307 303 301 299 297 296 297 298 292 288 290 289 289 288 289 289 291 293 294 297 294 294 294 294 293 295 299 300 300 298 296 298 299 300 301 302 302 302 302 302 302 302
313 314 314 315 315 317 317 317 318 319 319 320 320 322 323 322 320 315 311 308 307 301 300 300 303 293 291 303 309 314 314 316 318 317 312 317 319 321 319 316 315 312 306 303 300 304 301 300 299 297 296 295 297 298 296 290 293 292 292 289 286 291 290 291 294 294 296 294 293 292 293 295 297 299 299 301 298 298 299 298 299 300 300 301 301 302 302 303
313 314 314 315 314 316 316 317 317 318 319 316 316 315 311 304 303 300 304 306 304 303 305 304 308 306 304 306 307 314 317 318 313 312 314 316 318 315 314 314 312 313 305 302 300 302 304 298 296 295 299 299 299 299 299 291 294 293 292 291 290 292 289 290 292 294 295 294 293 294 294 295 297 299 299 300 300 298 298 299 300 301 301 302 303 303 303 303
313 314 314 314 314 315 316 317 318 318 319 316 314 308 300 302 297 293 299 302 306 303 301 305 307 304 304 309 312 312 308 308 312 309 314 320 318 314 307 311 306 301 304 305 300 301 303 297 297 300 302 301 300 300 297 293 293 293 292 292 290 292 293 292 295 295 294 295 289 291 291 293 295 297 298 299 297 297 299 300 300 301 302 303 303 304 305 306
313 313 314 314 314 315 316 317 318 319 319 315 312 306 307 308 309 312 306 296 303 299 300 304 305 303 307 308 313 315 313 306 306 308 313 316 313 308 305 306 303 299 305 302 300 297 296 295 300 302 303 301 300 299 298 297 291 290 291 289 289 289 289 291 292 293 295 293 292 290 292 295 296 297 298 297 298 300 301 301 302 302 302 303 304 304 305 305
312 313 313 314 314 315 316 316 316 317 314 310 306 308 307 308 310 313 310 304 299 301 301 302 302 302 305 310 311 313 306 303 301 306 310 314 309 307 306 303 302 302 302 301 297 295 292 296 301 301 299 299 295 297 296 294 293 291 289 289 289 288 292 289 292 291 294 294 291 291 292 294 296 297 298 300 299 300 301 301 302 303 303 303 304 305 306 306
313 312 313 314 314 314 315 315 316 315 311 310 309 309 311 312 313 311 305 294 294 300 301 301 303 303 305 305 311 310 306 305 305 303 313 312 306 308 306 304 302 301 297 300 300 297 295 300 303 300 299 298 294 294 295 294 293 290 293 290 288 288 292 293 291 291 291 292 289 292 294 296 298 297 299 301 300 300 302 301 302 303 303 304 305 305 305 306
312 312 313 313 313 315 314 315 308 307 312 309 308 311 311 313 313 311 301 293 295 296 301 300 298 300 306 309 310 306 304 306 306 309 311 312 306 305 303 307 303 297 299 301 301 298 298 301 303 300 298 296 293 291 294 295 293 291 292 296 293 291 291 291 290 293 289 290 289 290 287 288 292 297 298 301 297 297 299 300 301 303 304 304 303 304 305 305
311 312 313 313 313 314 315 306 305 311 308 303 309 310 312 313 313 309 300 286 284 292 299 292 305 299 309 304 304 303 308 301 308 310 312 312 313 307 305 301 303 295 299 300 299 299 299 301 302 299 296 294 295 294 294 297 292 291 291 294 292 292 293 290 290 292 286 286 289 290 288 285 287 290 292 295 295 297 298 298 300 301 303 303 304 305 305 306
311 311 312 312 313 314 304 298 311 311 302 305 310 311 312 310 310 307 294 280 280 293 290 300 299 295 304 303 305 306 291 295 308 311 310 313 307 311 301 299 301 302 302 301 298 293 300 298 299 299 296 295 294 293 294 296 293 290 293 294 292 292 292 291 291 293 286 287 289 289 287 286 287 293 294 294 296 297 296 297 298 299 301 302 302 303 304 305
311 311 311 312 314 312 304 309 306 303 305 309 311 311 311 308 307 304 291 275 274 298 290 294 296 306 302 304 304 298 296 306 298 304 312 312 312 306 303 298 298 298 300 299 288 301 301 296 298 296 296 295 293 296 296 297 293 290 293 298 293 293 291 289 292 287 288 289 288 289 288 287 287 290 292 294 293 294 295 296 297 299 299 300 302 302 302 303
311 311 311 312 313 312 311 307 306 305 309 311 311 310 309 309 305 293 282 273 289 287 305 293 306 302 301 303 300 296 295 296 295 305 310 311 311 307 300 301 301 301 302 300 294 297 301 300 300 299 297 294 297 297 296 298 294 292 295 296 294 292 289 293 289 291 289 288 285 289 289 285 286 291 290 289 292 293 293 294 297 298 300 301 302 303 303 302
311 311 311 312 311 309 306 307 305 309 311 312 310 309 309 305 294 283 278 271 291 281 294 296 296 292 300 296 295 296 295 297 299 305 307 304 306 308 303 309 302 300 298 301 298 297 300 300 302 300 297 299 298 297 299 299 295 296 297 294 290 286 286 284 287 288 288 285 287 291 289 290 283 289 289 289 290 291 293 293 294 297 298 300 301 301 302 302
311 312 311 312 304 306 306 300 307 310 310 311 309 308 304 297 285 279 274 279 290 288 296 293 290 301 295 293 290 293 295 299 301 302 298 304 301 304 303 300 303 297 295 296 295 297 296 299 300 300 301 298 300 295 298 299 298 297 288 289 292 289 288 287 285 287 284 282 289 293 289 290 283 285 286 290 290 290 294 293 294 295 296 298 299 300 301 300
311 311 312 309 308 309 301 300 309 310 310 309 308 302 296 281 285 277 275 295 280 286 288 288 295 295 295 296 294 294 293 297 300 300 295 297 296 296 297 291 296 286 287 289 289 296 293 294 298 298 301 302 298 296 295 297 298 297 294 293 287 282 286 282 286 282 283 282 287 290 290 286 286 292 290 291 291 291 290 294 296 295 296 297 298 298 299 298
311 311 312 310 309 306 306 309 310 310 309 308 303 299 287 281 273 283 283 284 277 291 287 295 292 294 294 292 290 293 294 291 299 299 298 298 296 296 299 297 298 292 284 291 289 290 291 296 296 296 299 303 301 293 291 291 295 295 293 290 286 282 281 279 283 285 285 288 287 286 289 285 291 293 297 297 299 300 300 297 297 298 298 298 299 298 298 298
311 312 307 309 308 309 308 308 309 309 307 305 299 291 286 279 277 288 283 280 281 290 293 290 293 293 293 287 290 293 289 294 297 296 298 293 294 291 295 297 298 292 289 288 288 287 284 285 291 295 291 301 301 299 297 294 295 295 298 294 288 287 283 278 281 279 281 284 285 286 285 280 284 288 290 294 295 297 300 301 302 301 301 300 300 300 299 300
310 308 307 307 307 309 308 309 309 309 306 302 293 286 278 278 284 280 281 281 284 290 289 294 291 290 288 289 292 293 292 289 297 296 294 293 290 292 291 293 297 297 293 286 287 289 288 288 294 300 299 301 299 302 302 298 294 297 296 297 291 287 290 283 279 282 284 282 281 282 284 287 290 292 293 291 292 294 291 293 293 297 299 300 300 300 301 301
307 305 307 303 305 307 309 309 309 308 303 297 288 282 280 283 276 285 283 290 289 287 290 292 291 287 286 285 290 291 292 288 294 295 293 293 293 292 295 295 295 297 292 287 289 284 287 286 293 297 300 299 300 301 300 301 287 293 295 289 292 297 291 284 283 281 280 279 280 282 284 286 293 295 297 298 293 294 294 296 295 295 296 296 296 298 299 300
302 304 298 303 304 307 309 308 308 306 302 294 286 281 285 281 285 286 291 288 289 292 289 283 284 285 283 283 286 289 288 292 293 293 286 294 290 293 293 291 298 298 297 294 286 290 287 286 292 294 293 299 303 302 301 302 300 297 289 293 296 295 293 290 283 282 280 278 279 286 282 284 284 282 288 291 292 293 292 295 297 296 295 295 298 298 299 300
302 302 302 302 305 308 308 308 307 303 298 291 283 286 283 285 288 288 291 291 291 291 287 286 286 290 284 285 284 288 290 289 288 291 286 293 286 298 291 291 294 298 298 297 291 290 292 284 288 295 295 295 299 300 297 299 298 297 294 302 292 285 285 286 285 278 277 278 279 282 285 284 286 287 289 288 288 290 290 292 292 295 296 297 299 300 300 300
302 300 293 301 307 308 307 308 305 299 293 286 285 285 283 284 288 286 292 293 293 290 286 288 286 287 288 285 287 289 290 284 290 287 286 289 284 292 293 292 290 296 297 297 292 290 290 286 287 293 294 295 297 297 287 293 298 297 298 297 295 292 288 286 286 287 286 279 280 280 284 282 288 290 292 292 292 290 289 289 292 294 296 297 299 299 300 300
296 292 290 304 307 308 308 306 300 296 290 283 286 285 286 281 284 287 289 293 288 288 286 288 289 286 287 286 289 285 289 287 289 287 287 288 287 291 292 295 291 293 296 298 293 295 286 290 284 288 294 295 288 293 291 293 290 291 293 291 291 290 292 291 290 287 284 282 283 281 280 283 290 293 292 293 293 291 292 293 294 295 296 297 298 299 300 300
298 292 291 303 307 308 306 300 292 288 287 285 286 285 284 282 284 286 289 289 288 289 289 289 288 286 286 286 286 289 286 287 289 286 285 286 288 284 290 293 294 292 294 295 294 293 287 287 285 286 287 289 292 296 296 296 296 294 294 291 293 290 286 284 282 289 286 285 280 282 280 288 289 288 294 293 293 293 294 294 294 294 296 297 298 299 299 300
293 285 288 302 307 306 299 289 287 286 285 285 283 285 284 292 286 287 289 287 288 286 288 287 287 286 288 287 288 289 287 285 288 287 285 285 289 287 289 295 296 295 294 290 291 295 292 286 286 285 286 288 292 292 293 294 296 297 296 293 296 294 291 288 283 285 286 288 288 282 279 286 292 288 289 290 289 290 291 292 293 294 295 296 298 299 299 299
291 286 296 298 306 303 296 287 286 286 284 284 288 287 291 288 286 286 288 288 286 286 287 286 286 286 285 284 287 288 288 283 287 286 287 287 287 288 287 293 295 295 296 290 294 292 293 285 285 285 286 288 291 293 293 294 296 294 294 293 294 291 292 291 289 288 286 287 286 285 283 288 297 288 288 289 287 287 288 290 293 293 294 295 296 297 298 298
286 285 292 299 304 303 291 282 280 285 283 284 286 286 288 287 288 286 286 287 286 286 287 284 285 285 286 285 290 287 289 282 286 287 286 286 285 286 289 293 297 293 294 291 291 295 288 286 287 282 282 284 286 289 290 291 293 290 291 294 295 296 295 290 285 284 284 286 287 285 280 287 297 289 286 284 285 289 290 288 289 293 294 295 296 297 297 296
289 290 291 294 298 300 288 287 285 284 283 284 285 283 285 286 288 288 290 287 285 285 286 284 285 285 283 285 288 287 288 284 283 286 283 284 287 283 288 294 297 294 293 295 297 298 289 285 286 280 277 277 277 278 281 285 286 289 291 292 294 294 293 290 287 287 284 287 287 285 285 292 295 293 294 289 289 292 293 288 285 288 292 294 294 293 293 293
285 281 286 288 289 291 287 286 288 285 285 285 284 285 286 285 287 288 288 283 285 285 285 285 284 288 285 287 283 282 286 282 285 284 286 284 284 284 284 293 295 295 295 297 295 295 281 285 288 285 283 281 284 286 288 289 286 285 286 290 291 293 295 294 290 288 285 287 287 288 289 290 292 294 295 293 292 293 295 296 296 295 291 290 289 291 292 293
287 284 283 282 286 286 285 286 285 285 285 288 283 285 284 286 287 287 289 285 287 285 284 284 284 286 284 287 285 285 283 281 283 286 286 285 281 283 285 289 291 293 295 293 296 289 278 284 286 286 286 286 287 286 286 291 287 288 287 287 290 290 291 289 286 284 290 286 283 289 290 287 291 294 295 295 290 292 295 293 291 289 288 290 291 289 290 289
281 282 285 287 284 281 283 283 287 285 285 287 285 287 285 285 286 284 286 286 286 286 286 286 285 287 288 287 287 284 283 279 279 283 286 283 284 285 286 287 290 292 295 291 293 289 284 284 286 286 286 288 288 286 286 286 287 288 289 289 287 289 289 287 287 290 290 286 284 290 290 287 291 295 297 297 296 296 297 298 295 291 288 287 287 289 291 292
286 285 285 287 282 284 287 287 288 286 285 286 285 287 285 285 284 286 286 284 285 283 285 283 285 286 288 288 287 284 285 281 280 276 283 283 286 284 283 284 288 287 290 288 290 283 287 283 285 286 285 286 286 286 284 286 286 286 287 289 290 290 290 290 290 292 291 290 291 292 291 291 294 296 298 298 297 295 291 289 287 288 290 290 288 289 292 294
283 284 283 286 286 285 286 287 287 286 284 287 284 284 286 285 284 283 285 284 282 284 284 287 286 286 287 287 288 285 286 288 287 283 281 286 280 283 286 285 283 286 289 288 289 285 288 284 289 283 283 284 286 286 284 284 285 285 285 287 289 289 291 292 292 291 290 291 292 292 291 291 297 299 298 298 291 290 291 292 294 293 292 291 292 294 295 296
286 286 286 286 283 284 286 286 286 286 284 283 284 285 286 287 285 287 283 283 288 285 285 286 288 286 287 287 287 287 290 289 289 288 286 288 285 286 287 281 286 287 289 288 287 285 287 284 285 282 282 282 284 284 283 283 283 284 285 284 283 285 285 289 289 292 290 288 290 290 289 290 296 299 298 298 298 297 296 296 296 299 300 299 299 300 300 301
288 288 287 284 282 287 285 286 287 286 283 285 286 286 286 286 288 287 283 284 282 285 289 288 287 287 284 286 285 288 290 289 287 287 289 287 288 288 284 285 290 290 288 288 287 285 285 283 282 283 282 282 285 284 283 281 281 281 282 286 286 286 288 290 292 294 293 293 289 287 288 295 297 296 295 298 299 299 298 297 298 298 298 299 300 301 301 299
Wind_Speed
21 20 20 19 19 18 20 23 20 21 21 20 20 20 20 20 19 20 19 19 18 15 16 19 16 15 14 14 13 12 10 7 5 11 11 11 11 6 10 11 9 9 4 2 3 4 1 2 1 6 2 2 2 1 2 2 2 1 2 3 1 3 4 5 6 9 1 1 2 4 5 4 3 1 1 1 4 2 1 2 4 2 6 5 3 1 1 5
22 21 19 20 19 19 19 20 22 20 19 22 19 21 20 21 20 20 19 18 17 17 16 18 18 16 15 16 15 13 10 8 10 10 17 8 12 7 4 9 10 9 7 2 6 4 6 1 1 3 2 1 2 0 1 0 0 3 2 2 5 5 4 6 5 6 2 1 2 3 4 4 5 8 3 3 2 0 1 3 2 5 7 4 1 2 7 8
22 23 21 21 21 19 18 19 22 23 21 19 19 19 21 19 19 19 19 19 19 17 17 18 19 17 17 16 15 14 9 7 8 18 14 11 9 10 6 9 9 12 6 4 3 7 6 8 5 4 2 2 6 0 2 0 1 1 3 4 3 7 3 6 6 6 2 3 2 3 1 2 1 4 2 3 3 1 6 5 2 5 9 8 3 4 8 8
22 21 20 19 21 20 18 19 22 21 19 19 19 19 20 19 19 19 20 19 19 19 17 18 19 19 17 16 16 12 10 2 15 13 9 17 10 14 10 9 9 7 6 3 6 5 4 8 5 5 2 4 3 1 1 1 1 1 2 3 2 3 1 1 7 5 5 1 2 3 1 1 2 3 3 4 5 4 7 8 9 11 13 10 7 7 8 9
21 21 21 20 21 20 19 20 21 22 22 19 19 18 18 19 19 19 19 20 19 20 19 17 18 18 18 16 17 12 8 6 9 11 15 20 15 14 14 11 10 6 6 7 8 5 5 5 4 4 3 1 2 1 0 1 1 3 4 3 2 2 1 1 4 4 4 2 7 3 5 6 1 0 2 9 7 7 8 9 11 9 7 7 10 9 8 10
20 21 21 22 22 22 20 19 19 21 23 21 19 18 17 19 18 19 18 18 19 19 19 19 19 19 18 19 14 10 13 14 2 9 20 21 20 15 14 13 10 10 11 6 5 5 6 2 5 3 1 2 3 5 1 1 0 3 1 2 4 1 1 2 2 1 4 2 3 3 4 3 5 2 2 6 9 5 6 2 7 9 7 7 4 8 9 10
19 19 21 20 23 22 20 20 20 18 19 21 23 19 18 19 19 18 19 19 18 19 19 20 20 19 18 16 12 14 16 8 2 7 14 26 22 17 15 11 11 10 9 6 5 5 4 4 4 3 4 2 1 2 2 1 1 2 3 0 0 4 2 1 0 0 1 6 2 3 1 3 3 5 1 4 11 7 2 2 2 4 4 7 8 10 13 14
20 20 20 19 19 21 22 20 18 20 22 23 24 20 18 18 20 19 20 19 19 19 19 18 20 20 17 10 7 13 13 14 3 3 17 23 23 19 15 9 10 8 8 11 10 8 7 7 7 3 3 8 4 6 1 2 1 3 3 2 1 2 2 2 1 2 1 0 0 2 2 3 7 3 3 7 13 11 5 1 1 3 5 6 7 10 10 10
20 20 20 19 20 19 22 21 19 20 21 23 21 20 19 16 19 19 19 19 20 21 21 21 22 19 17 6 5 12 20 4 5 3 12 17 17 15 14 7 7 10 6 5 6 9 9 5 4 5 5 5 3 5 1 5 5 4 6 5 0 1 1 1 2 1 0 0 0 1 4 3 3 2 3 10 9 6 1 0 1 4 5 7 9 10 10 11
20 21 21 20 19 19 21 20 20 19 20 22 22 19 15 16 18 19 19 20 21 20 20 18 18 21 15 8 7 13 7 10 2 5 13 15 15 16 15 12 13 12 9 5 5 8 8 6 10 6 8 2 4 3 2 4 4 4 2 3 3 2 0 2 1 0 1 1 2 3 4 2 1 3 6 2 8 1 1 3 0 4 8 8 8 8 9 10
21 22 22 21 19 18 21 21 19 18 19 21 20 19 21 18 18 19 17 19 20 20 19 22 21 18 11 10 14 18 1 10 3 5 12 15 15 14 15 12 12 12 13 7 9 11 8 10 5 5 1 4 5 1 1 3 4 3 3 1 1 1 2 2 1 2 0 2 3 4 4 2 1 1 7 5 1 2 4 5 5 6 7 7 8 8 7 8
23 23 22 22 20 20 21 22 21 18 18 19 21 23 21 17 17 18 18 19 19 19 19 19 24 12 9 14 16 8 3 2 4 7 11 15 15 13 11 11 12 12 14 11 9 7 7 10 11 6 5 4 3 3 3 3 0 1 2 4 6 4 2 2 6 3 3 3 5 4 1 4 2 8 6 9 0 2 4 6 5 8 8 7 7 7 7 11
23 23 23 22 22 21 22 22 22 19 21 20 20 22 19 17 17 16 16 17 20 21 21 20 18 9 9 15 15 4 2 5 6 10 7 8 6 5 5 3 4 6 10 16 11 6 4 9 8 5 1 7 6 2 2 4 0 1 3 1 3 3 6 5 2 1 4 2 6 3 7 5 12 12 4 6 3 1 3 5 7 8 8 7 7 7 8 7
23 22 22 22 21 21 22 22 22 22 20 19 18 21 19 18 18 15 17 17 17 20 20 19 10 10 12 6 2 1 2 5 8 11 8 10 14 6 8 5 6 5 5 4 4 5 6 2 6 5 1 5 4 1 5 2 2 4 2 2 4 2 6 2 2 6 5 1 4 1 8 7 8 6 6 7 3 6 9 9 8 8 8 8 8 8 9 9
24 22 22 22 21 22 23 22 22 23 22 22 22 20 18 17 17 16 15 17 18 20 20 16 10 6 12 3 3 4 7 3 8 8 10 14 12 9 9 8 7 7 5 5 4 3 4 7 8 4 2 1 5 4 2 1 2 2 3 5 0 7 4 4 1 8 8 0 0 5 6 8 15 10 7 4 3 4 9 10 9 8 9 8 7 8 8 9
25 24 24 22 22 23 23 22 22 23 22 23 22 20 19 17 16 16 16 17 18 18 11 13 10 7 2 9 4 5 4 7 9 12 5 17 15 13 13 9 8 6 7 4 2 4 3 3 3 5 3 1 4 6 4 2 2 0 7 2 4 2 4 5 1 3 3 3 0 8 7 3 9 7 2 4 3 2 8 10 8 9 10 8 7 7 8 8
24 24 24 23 23 25 24 22 21 21 21 20 20 19 18 17 16 15 14 18 12 7 9 5 4 7 12 1 2 16 6 1 4 4 6 8 12 11 14 12 5 9 11 7 4 5 5 3 1 2 2 5 4 6 4 6 5 6 0 6 3 5 2 4 4 2 2 2 4 4 5 9 12 2 2 4 2 4 6 10 10 10 9 8 7 8 9 9
23 24 25 24 23 21 23 23 22 21 21 19 18 15 15 19 17 12 10 11 4 3 1 4 3 4 7 1 6 8 9 6 7 8 7 2 16 13 13 8 6 13 10 4 6 5 2 3 1 7 4 4 6 9 12 17 12 6 4 3 1 1 3 4 4 3 6 1 4 2 7 7 16 8 8 4 2 4 8 8 9 9 9 9 8 9 10 10
24 24 23 24 22 21 24 23 24 22 21 20 21 19 17 16 9 2 5 5 9 5 9 9 9 13 2 14 6 10 7 8 7 14 7 13 9 13 8 5 14 16 9 8 3 5 0 5 3 6 12 9 14 15 14 3 9 10 7 5 4 6 3 3 6 2 7 5 6 5 8 10 17 15 9 10 6 5 8 6 8 10 9 9 9 9 9 10
24 22 23 23 24 23 24 25 24 24 24 19 14 11 7 8 7 5 4 7 13 9 1 8 16 2 5 2 7 4 8 8 12 1 10 3 14 14 11 11 8 10 11 13 6 9 6 11 12 14 15 14 10 12 10 5 6 7 7 6 7 7 5 3 4 1 1 1 8 10 10 10 14 13 9 10 5 4 9 11 12 11 11 11 11 11 11 11
24 23 23 23 23 24 25 24 24 25 27 14 15 10 10 13 16 10 10 6 7 4 1 5 12 5 3 5 6 18 15 3 1 7 11 9 14 19 9 13 12 11 12 13 12 3 6 11 15 17 15 14 15 11 6 4 5 9 7 8 8 7 9 4 4 1 1 5 3 3 5 11 14 16 12 10 6 9 11 13 14 14 13 12 13 14 13 14
24 26 24 24 22 24 26 24 25 24 26 13 13 14 3 13 2 1 10 10 12 1 3 5 4 2 2 2 4 9 5 6 7 5 2 6 14 16 7 11 16 14 13 8 9 9 9 14 18 18 8 7 9 11 9 10 4 4 6 5 4 6 1 3 3 2 1 3 8 5 8 10 11 14 12 10 11 11 12 13 16 12 13 13 12 13 14 12
26 26 25 22 23 25 23 24 24 27 15 14 12 13 12 3 2 3 7 4 6 2 2 7 8 3 2 3 3 4 13 9 9 11 12 9 11 10 13 10 13 11 11 13 14 11 11 14 20 7 9 10 4 6 7 5 3 6 6 6 7 4 6 6 3 0 3 3 2 2 8 10 10 11 16 12 11 10 13 15 16 13 14 17 17 14 14 14
25 25 26 25 22 24 25 25 24 18 14 14 13 15 4 9 8 12 9 5 5 7 3 2 6 5 7 9 5 8 14 5 9 13 6 12 13 8 12 13 17 12 14 17 18 17 18 14 8 12 11 13 10 9 11 8 8 3 7 5 5 5 7 6 4 1 0 1 2 4 9 13 11 12 13 12 13 13 13 12 14 15 12 14 11 10 11 13
25 24 25 24 25 25 25 24 17 11 12 16 16 8 6 11 10 12 14 3 1 4 3 2 2 1 5 2 3 6 2 3 1 7 9 15 13 9 7 4 8 12 15 20 17 15 16 4 15 15 13 8 9 7 12 12 10 6 6 11 7 6 5 2 0 3 1 2 2 3 7 9 4 14 16 11 4 8 10 12 14 17 16 13 13 17 15 12
26 24 24 25 25 26 24 16 11 13 15 15 12 7 7 13 11 1 8 3 9 4 5 13 4 8 4 2 4 2 10 7 2 7 7 2 2 6 7 7 4 15 17 17 14 7 11 7 17 14 10 11 14 13 9 11 9 8 8 7 7 8 7 6 4 4 3 5 2 1 6 13 2 6 6 6 6 12 6 10 14 14 15 14 14 14 14 15
27 23 23 28 27 26 16 10 11 15 17 14 11 11 9 11 7 6 5 2 7 9 14 2 8 3 4 5 9 10 13 8 3 9 7 2 10 2 11 5 2 2 3 4 2 8 6 10 11 12 12 14 12 11 9 16 10 8 5 12 8 7 7 6 6 6 3 1 3 1 2 7 15 15 5 9 13 13 11 11 12 13 14 15 12 11 12 13
25 22 24 27 27 25 12 8 15 18 14 10 14 12 8 11 7 5 2 6 6 13 9 7 3 1 2 7 12 7 2 13 11 10 11 7 7 1 4 10 13 14 11 9 18 6 20 15 16 15 14 13 14 13 10 11 8 3 6 14 7 9 4 5 6 4 1 1 9 2 0 5 11 5 1 9 13 13 12 9 13 14 13 15 17 16 15 15
25 25 24 24 26 30 13 4 14 17 9 14 15 14 10 11 7 8 4 4 0 4 2 10 2 3 5 10 9 2 3 5 2 9 7 4 1 4 10 12 10 11 12 15 14 2 1 14 18 18 15 14 10 8 13 15 11 2 8 6 7 7 4 6 4 5 0 2 13 11 8 7 19 12 7 2 9 14 6 9 13 15 17 17 17 17 14 10
27 25 25 24 21 18 13 3 7 12 13 14 16 14 14 12 5 9 8 6 4 5 5 3 10 10 7 15 6 3 4 1 2 8 9 6 4 2 4 3 5 10 10 9 6 0 2 4 4 7 11 9 8 8 17 15 5 8 10 10 5 4 4 4 3 5 2 11 17 16 9 11 12 10 9 8 9 6 8 5 7 10 12 14 13 12 10 9
26 27 27 27 15 10 12 13 8 12 15 14 17 19 12 7 9 9 9 2 5 1 5 14 10 17 20 21 13 1 5 7 6 11 6 4 7 5 5 3 2 5 6 10 10 3 5 2 7 3 6 4 12 5 2 8 12 12 3 6 8 1 3 2 0 3 9 12 18 8 10 11 12 5 1 2 2 4 7 7 9 10 12 12 10 10 10 7
25 26 27 20 12 11 15 15 12 13 17 19 21 15 14 12 3 11 5 3 9 7 12 12 12 14 18 13 11 13 13 7 7 11 10 12 10 10 11 10 9 3 9 11 10 6 5 4 1 2 4 19 9 11 1 8 8 8 9 10 11 4 6 8 6 12 12 14 2 6 11 3 18 24 3 5 3 2 5 6 8 8 10 10 10 9 7 7
24 25 28 18 14 11 13 6 13 13 17 22 17 12 10 9 12 6 7 8 3 10 6 14 19 22 19 16 14 11 4 12 8 11 11 8 10 13 14 15 15 4 8 15 9 13 6 2 1 2 3 9 17 13 9 9 11 13 14 12 11 9 10 10 10 4 7 7 3 5 5 7 9 18 18 24 20 21 19 14 11 9 10 10 9 8 9 9
22 22 16 13 14 13 9 10 15 16 21 16 15 11 8 11 7 7 9 4 4 2 12 11 17 13 22 18 14 15 10 6 11 8 14 8 10 9 9 8 12 7 6 3 13 8 10 11 7 10 8 8 16 15 18 13 17 16 12 14 11 10 6 10 8 13 13 8 0 4 5 6 5 8 2 1 3 9 11 12 12 14 14 14 14 12 12 14
24 19 14 12 10 9 12 10 15 22 16 16 13 14 19 10 3 11 6 5 1 6 8 11 18 17 14 6 10 12 6 8 13 12 12 12 13 10 9 11 10 6 3 8 1 4 16 7 3 11 3 13 15 12 14 10 6 7 5 7 9 12 2 8 3 6 6 3 2 4 7 6 14 1 6 4 1 3 2 4 5 11 12 12 12 14 14 13
20 9 10 10 12 8 14 12 14 18 17 15 12 8 15 6 4 3 7 4 8 11 14 13 11 14 11 5 5 15 3 5 11 9 7 12 9 12 8 7 13 16 9 7 5 5 1 11 5 9 12 17 15 13 10 17 12 9 8 14 13 4 7 4 2 1 4 2 10 3 6 8 12 20 17 20 6 10 6 7 7 9 10 7 9 9 11 12
10 12 12 11 13 10 13 13 13 14 14 15 10 11 4 2 0 7 7 13 11 19 17 19 11 10 12 7 7 14 2 5 12 10 6 8 8 8 6 1 4 14 12 9 0 2 8 2 1 4 7 10 10 11 8 15 4 9 12 8 4 3 3 4 7 2 4 7 5 9 12 10 4 14 2 3 12 7 4 13 13 7 4 8 12 10 13 13
11 10 11 12 13 13 13 15 15 14 13 15 14 5 2 5 2 2 6 10 10 9 13 10 5 12 14 15 13 16 8 15 11 12 5 15 4 10 4 7 3 9 11 7 6 3 4 1 2 7 5 3 5 9 5 4 3 8 8 8 11 4 6 1 2 9 5 7 4 6 9 11 10 16 4 1 1 2 4 3 4 8 10 12 14 16 15 14
4 8 6 7 13 14 13 15 15 15 14 11 13 9 1 1 5 3 8 11 14 15 14 6 10 4 11 11 11 17 19 15 14 14 11 7 8 11 14 6 6 6 7 12 6 3 1 7 0 1 5 4 6 9 12 9 2 1 4 5 1 2 4 10 10 0 5 7 4 6 8 10 10 10 16 13 10 5 5 3 5 9 12 12 11 12 13 13
8 5 3 8 12 14 15 16 15 14 13 16 12 4 4 4 3 4 4 13 6 8 1 10 11 13 11 8 15 14 11 11 16 11 11 5 9 4 15 10 9 8 8 5 6 4 2 1 6 1 1 7 8 7 13 15 13 6 7 7 4 5 1 2 1 7 5 5 9 6 10 3 8 7 11 10 8 7 9 10 9 10 11 12 11 12 12 12
4 4 2 6 14 15 16 14 13 14 12 3 2 4 3 4 3 2 1 2 4 2 5 13 12 12 14 11 7 6 6 9 10 9 8 4 13 4 5 9 11 13 7 4 5 3 4 2 8 3 4 9 4 4 4 7 12 11 13 12 15 13 6 8 9 3 3 6 5 7 15 8 5 2 6 8 8 9 10 9 8 8 10 11 11 12 13 14
8 6 1 5 15 21 16 17 6 3 3 9 9 5 4 4 7 5 3 2 5 3 3 4 2 4 12 12 16 17 11 11 11 9 6 8 11 5 7 14 14 17 14 10 10 5 5 3 3 6 4 8 2 2 2 1 2 9 10 12 13 11 8 9 13 7 2 9 1 2 3 12 1 3 3 3 2 3 3 2 6 8 9 11 12 13 13 10
7 0 2 4 17 20 17 9 3 4 3 2 9 7 3 4 5 3 6 1 2 0 3 2 6 9 2 4 6 8 11 6 11 12 8 9 6 4 3 11 13 16 11 4 5 1 8 3 5 1 0 5 2 1 3 2 3 2 7 2 5 12 16 16 13 2 7 5 8 5 9 11 9 4 2 5 2 1 2 4 5 6 6 8 10 12 13 12
3 2 2 4 9 17 16 9 8 8 5 3 6 7 3 1 6 5 2 3 4 3 6 4 1 2 7 2 10 16 15 7 2 6 3 1 2 2 9 12 19 10 13 9 11 11 6 5 7 4 2 1 2 3 3 2 1 1 5 13 12 10 11 1 5 2 2 8 10 10 16 6 12 4 4 3 2 1 1 2 5 6 7 8 9 9 10 10
5 1 4 1 3 13 13 3 6 8 6 9 8 9 6 3 3 1 8 7 1 3 5 1 2 3 2 3 9 5 7 3 5 2 2 1 3 1 6 15 16 12 6 9 9 10 7 5 10 10 11 11 11 10 10 10 10 3 2 2 10 14 13 6 11 6 11 8 12 6 7 12 7 1 1 1 6 6 7 4 4 7 7 8 7 7 10 10
3 5 0 3 6 2 2 3 3 7 12 11 10 8 10 8 1 3 6 3 1 3 4 5 2 6 4 8 5 7 9 2 6 6 7 6 3 1 4 12 12 10 8 13 10 10 3 3 10 11 13 14 12 7 1 9 5 4 7 11 9 8 10 12 7 9 12 5 12 11 9 9 15 14 12 1 1 5 10 9 8 6 6 7 6 9 9 9
1 3 5 5 3 2 6 3 6 4 9 11 10 7 8 10 9 2 3 3 3 2 2 2 5 8 2 11 8 9 6 3 3 7 12 9 1 3 2 7 5 7 10 7 9 6 3 5 8 9 13 13 10 11 5 9 8 9 10 8 9 9 9 8 5 4 4 0 9 1 2 1 15 16 12 10 5 7 10 9 7 6 6 6 7 7 9 9
2 1 4 1 2 6 9 4 10 8 4 1 4 7 13 14 11 8 3 2 2 1 6 3 3 5 16 16 12 10 9 5 2 9 6 1 4 1 5 1 5 5 10 4 6 6 6 8 8 9 12 13 13 8 6 4 5 8 13 14 16 18 17 17 17 18 11 6 9 4 3 4 14 19 20 17 7 9 12 13 9 7 3 5 6 7 8 10
1 1 2 1 2 1 7 14 16 13 10 4 3 8 12 15 14 8 6 5 3 1 2 7 8 10 14 9 11 7 11 8 5 2 7 9 12 8 5 3 3 0 5 5 4 1 4 7 7 9 11 12 13 8 4 5 4 4 8 12 11 14 17 19 19 17 15 14 14 14 12 17 17 21 23 20 9 9 7 3 0 1 5 6 5 6 9 10
1 2 1 2 3 5 6 7 9 13 10 6 7 7 11 16 15 3 1 6 7 5 0 8 13 11 11 13 13 13 17 19 19 14 5 13 4 3 9 6 5 3 4 5 5 3 4 5 10 3 6 9 10 7 3 6 6 8 7 7 8 8 11 14 15 14 12 15 15 15 16 18 17 18 22 11 1 2 3 5 7 5 6 7 6 9 9 9
1 1 1 6 5 3 6 7 10 11 8 1 5 7 6 13 15 12 4 1 12 14 10 17 18 15 11 13 11 13 16 16 10 13 15 17 15 8 8 4 6 9 6 4 3 0 3 3 2 4 6 7 6 7 5 5 5 9 10 5 3 4 7 7 12 12 13 15 16 17 15 15 17 17 12 10 13 14 14 8 6 10 12 10 11 13 12 11
1 1 1 2 5 1 6 4 5 8 9 7 6 12 10 16 11 13 5 1 1 1 9 11 11 13 6 10 14 15 13 6 4 5 6 2 3 5 2 7 15 15 8 8 4 6 6 3 2 3 8 8 8 6 7 3 1 8 12 10 9 8 9 9 14 14 16 14 14 13 14 16 19 4 5 19 21 21 12 7 10 12 10 10 13 14 12 6
Wind_Direction
238 235 234 234 234 231 231 225 219 232 236 238 236 225 215 209 209 207 204 200 194 193 195 195 188 183 186 189 174 169 173 191 188 191 205 205 197 166 173 179 170 175 146 94 93 111 44 31 125 340 31 58 320 111 286 49 346 68 125 113 244 198 152 204 177 189 206 104 204 187 205 137 211 162 180 105 40 48 344 262 295 287 241 207 232 292 109 123
235 238 233 233 232 231 230 232 226 218 231 237 236 237 219 212 208 209 206 197 191 199 200 195 189 184 183 189 168 164 169 197 215 214 210 180 197 165 189 185 157 153 127 128 140 142 135 107 106 52 67 55 299 46 338 144 33 92 119 129 226 168 235 163 193 200 111 314 162 187 177 168 219 144 201 141 274 5 226 268 337 300 286 275 322 128 130 144
236 238 235 230 234 234 229 230 231 220 219 231 237 244 230 211 209 208 206 200 195 193 202 195 189 185 185 187 163 165 166 193 235 234 206 208 187 184 186 172 155 157 154 156 195 143 160 174 175 92 15 105 3 231 23 318 51 195 121 205 247 204 231 202 174 189 208 138 80 155 229 165 270 152 129 210 166 68 215 219 276 253 252 236 179 139 152 159
237 238 237 233 231 232 230 225 230 222 214 221 232 236 240 215 208 207 204 203 199 192 199 195 187 185 189 188 166 171 172 254 229 216 192 197 194 191 182 159 155 137 98 83 153 111 114 93 77 96 63 75 309 6 138 252 114 226 119 183 224 175 105 204 176 201 210 152 142 138 54 220 277 210 172 166 123 240 260 232 194 215 228 227 196 166 167 168
236 235 236 234 234 232 228 225 228 225 217 213 222 229 235 230 209 206 203 200 196 188 197 196 189 185 187 184 174 165 132 225 239 193 187 189 194 192 176 160 140 133 123 137 87 78 92 113 97 47 94 180 348 17 296 352 151 106 200 193 140 148 116 267 190 167 133 150 102 140 133 219 66 40 209 159 187 220 206 234 217 230 224 180 187 187 174 178
236 234 232 232 231 232 229 226 229 228 221 213 217 228 227 233 214 205 199 197 200 196 190 191 186 189 187 183 163 174 143 211 168 178 175 176 188 181 175 151 134 119 115 112 122 139 111 44 95 132 81 97 192 156 256 182 25 199 309 247 217 204 166 328 28 199 139 121 115 144 217 89 162 248 200 205 207 228 207 186 207 226 217 197 144 146 180 184
232 233 233 230 230 228 228 225 225 226 228 221 217 219 220 226 224 207 196 195 196 196 191 186 182 183 190 175 179 177 193 231 13 293 175 165 174 179 164 142 132 123 121 110 125 136 143 124 101 163 115 81 311 177 217 142 4 118 226 319 12 153 195 91 187 35 138 124 216 200 94 161 147 223 104 212 246 244 246 196 236 258 190 155 160 181 185 191
231 227 229 228 227 226 227 227 222 220 222 221 219 215 215 218 224 205 201 193 194 196 190 197 181 181 173 169 182 187 200 222 230 293 165 165 165 164 153 143 142 134 136 155 156 149 141 146 160 137 103 160 209 161 199 93 21 151 264 200 236 131 251 282 137 65 99 230 17 129 146 231 183 197 102 244 247 252 237 98 83 127 135 164 187 191 200 202
230 225 222 223 224 225 224 224 224 217 218 225 219 216 212 208 221 214 197 194 193 197 194 187 180 180 165 158 216 188 211 168 203 191 160 168 155 137 136 140 154 140 140 136 165 158 138 215 135 185 202 178 189 145 198 153 286 186 218 154 49 182 192 41 108 54 188 257 173 109 242 280 260 146 242 244 263 266 233 19 100 130 154 190 204 202 195 203
228 226 225 220 222 222 223 221 221 219 216 220 223 220 216 215 217 216 203 192 192 194 191 198 187 173 165 169 205 237 204 136 141 143 165 159 157 147 161 156 152 135 127 155 113 145 167 194 169 189 127 66 152 167 170 156 223 175 166 174 189 225 293 11 181 326 197 218 175 200 263 269 341 150 270 282 257 342 143 214 255 170 208 208 210 209 213 206
228 226 224 218 216 215 222 221 215 208 212 215 218 217 209 217 215 220 199 207 195 191 190 188 191 168 188 189 193 222 315 167 158 140 160 160 161 164 167 162 160 150 147 166 166 175 179 157 135 111 67 216 141 192 136 205 130 108 141 107 250 338 264 223 14 282 178 277 175 187 260 276 283 83 226 241 324 207 197 232 228 223 229 223 219 216 215 227
229 225 222 220 214 214 220 219 208 194 211 221 211 217 209 204 204 216 203 201 207 195 190 186 180 182 186 194 214 214 174 79 146 131 151 154 171 178 164 165 165 161 150 166 191 195 155 157 144 148 184 133 147 116 251 211 99 194 164 267 294 339 298 220 206 233 149 262 152 164 324 295 238 228 222 237 289 158 197 232 242 241 243 238 233 227 216 224
227 225 222 219 215 213 216 219 209 191 200 212 215 214 206 197 203 202 205 197 204 206 198 189 184 199 181 197 215 172 118 124 112 115 124 150 108 80 113 132 158 156 171 161 183 174 152 149 156 126 165 129 161 138 185 93 88 92 45 135 328 349 298 262 144 34 154 240 145 142 266 242 241 241 230 239 198 115 233 246 239 243 245 249 238 230 235 232
222 224 222 218 215 210 209 216 209 203 191 198 211 217 208 197 200 196 199 198 193 206 205 199 189 196 196 220 37 174 136 118 109 106 131 134 137 120 99 78 76 76 43 81 63 121 115 108 115 116 122 107 167 207 65 17 34 184 230 77 205 164 258 287 191 158 160 182 185 117 243 268 274 270 263 257 225 206 237 242 243 244 249 249 245 242 239 236
224 217 219 217 213 209 209 209 207 209 202 194 203 209 201 201 198 195 195 203 192 195 208 197 184 192 205 222 337 289 135 125 129 144 146 139 133 126 132 101 75 75 73 98 117 95 117 105 108 126 178 285 102 119 26 76 13 159 109 242 317 194 280 292 261 163 179 316 95 126 263 243 266 267 240 254 253 210 239 248 248 249 248 244 252 254 255 253
221 218 216 215 212 207 204 205 204 206 205 200 193 198 198 200 200 195 190 203 195 185 194 213 195 197 76 206 189 106 120 170 177 159 175 138 158 158 147 129 108 80 80 20 94 100 58 100 126 180 110 35 98 121 70 62 273 298 196 255 220 165 243 335 230 242 333 114 290 180 226 316 293 270 293 314 218 186 240 256 258 257 257 257 252 257 259 268
221 218 215 213 211 208 205 202 199 200 202 202 194 189 189 188 201 198 191 196 201 166 169 208 109 192 224 59 63 155 172 110 119 132 155 157 142 132 124 122 112 96 82 60 31 100 357 101 310 57 35 143 159 121 145 228 242 214 3 202 202 165 179 224 303 245 226 155 193 236 222 228 247 236 274 329 171 167 222 254 260 261 265 264 263 258 259 253
218 218 215 213 207 197 200 201 197 198 200 198 196 187 188 187 186 185 204 196 113 121 108 346 125 107 227 127 176 174 155 132 160 146 129 167 132 142 143 130 130 119 106 54 344 126 265 82 19 183 148 153 150 168 187 221 201 157 165 172 219 31 188 200 163 249 143 292 198 219 236 251 264 261 282 258 158 177 231 237 254 263 267 271 263 261 258 258
215 212 211 214 201 193 199 202 200 195 191 194 194 188 187 183 182 149 155 145 133 145 189 195 161 211 206 178 231 152 156 138 120 137 153 141 149 141 126 104 138 139 153 149 236 118 338 73 55 141 193 181 193 190 204 137 134 187 165 171 148 168 208 192 240 275 175 189 223 205 218 229 253 260 254 266 202 211 248 266 275 267 263 264 262 260 258 256
209 207 209 212 207 198 197 201 200 196 188 192 191 185 155 162 156 180 136 150 195 189 298 171 188 85 33 107 141 105 103 145 132 274 132 152 133 135 138 140 151 157 148 185 145 196 145 172 189 197 204 191 189 194 191 171 142 151 156 157 188 187 252 276 268 258 304 281 235 225 234 237 253 259 258 256 258 234 262 261 256 255 258 259 259 253 253 251
212 207 203 206 205 205 199 198 196 196 188 180 178 180 197 176 176 190 159 168 197 221 354 204 184 128 158 155 165 145 140 27 71 161 156 158 136 135 172 147 161 176 188 169 156 125 170 190 209 208 201 180 190 190 154 132 108 144 155 172 207 185 219 216 204 352 298 172 295 256 246 246 250 264 257 258 265 257 249 255 252 254 255 257 258 263 260 257
204 210 201 200 200 202 199 196 195 194 186 182 191 193 232 197 190 106 139 171 211 220 248 196 122 92 1 92 180 141 86 117 116 144 230 154 164 158 201 172 170 183 171 131 102 155 187 206 211 208 173 167 179 184 183 178 116 107 145 172 164 241 277 283 260 292 226 131 253 276 262 257 247 257 257 244 237 240 241 240 250 243 252 255 252 253 260 264
206 208 202 194 198 202 198 196 197 194 188 187 198 191 201 123 48 84 81 57 190 135 155 161 189 140 183 158 220 192 150 170 147 176 175 158 178 188 158 164 182 164 164 155 171 153 200 219 221 144 142 165 158 164 152 155 139 135 114 142 207 198 151 261 280 121 211 163 284 271 280 271 258 253 260 241 226 236 235 241 252 241 241 246 247 244 248 253
203 202 204 198 192 197 196 200 195 191 189 189 184 201 137 126 132 134 120 178 163 187 178 205 166 169 182 160 206 176 164 163 152 182 177 162 171 147 163 174 169 164 175 175 183 185 201 210 167 127 168 169 161 163 165 166 203 189 172 184 151 169 207 171 234 79 346 5 62 326 288 278 242 251 256 242 222 233 240 243 253 258 243 248 265 269 248 251
203 200 200 199 195 192 196 191 197 190 165 190 203 184 142 115 153 156 134 60 275 201 121 214 38 279 179 22 158 155 133 18 101 168 178 165 147 147 196 160 165 186 174 183 184 197 215 183 132 180 181 147 124 159 185 174 203 198 223 200 187 159 176 229 40 129 23 315 335 69 329 269 214 219 232 247 207 230 240 237 245 253 255 250 245 249 253 249
202 197 194 193 192 193 183 197 193 181 174 196 186 152 162 136 143 198 105 146 206 152 117 210 130 222 136 171 84 135 126 196 144 157 153 161 36 152 141 193 181 181 180 179 187 202 204 173 172 186 133 153 171 188 193 168 191 180 225 161 145 166 167 147 183 126 255 236 284 50 210 281 149 258 218 243 236 228 236 220 237 242 249 251 242 242 244 244
202 197 193 197 190 181 179 204 166 178 185 191 173 143 152 120 112 126 141 285 222 177 170 100 181 233 190 177 139 128 180 184 95 137 158 209 166 296 157 143 118 43 147 149 172 215 143 171 177 173 159 172 181 191 186 177 174 218 148 134 141 144 148 176 144 181 215 271 277 62 130 268 294 264 184 217 242 239 230 235 240 241 246 251 251 244 244 243
196 191 197 194 189 177 203 160 174 188 198 136 136 142 137 117 88 63 226 177 231 121 171 167 231 59 101 169 153 154 301 128 159 184 172 163 129 3 168 172 182 169 164 167 203 146 185 174 180 174 175 186 198 194 162 165 166 213 164 144 169 139 154 140 133 103 205 45 268 147 137 292 252 267 126 176 227 249 237 229 242 249 248 253 255 247 239 240
193 190 190 192 189 186 186 178 180 191 169 135 138 136 134 119 118 149 195 187 46 108 37 139 199 85 120 131 167 111 160 357 88 140 135 115 339 152 177 192 175 157 167 188 185 123 76 185 190 177 175 195 187 166 143 166 184 223 148 119 131 122 99 138 124 118 62 236 257 235 170 230 275 246 233 180 234 247 236 212 231 238 240 240 247 252 248 248
193 190 185 185 186 189 192 173 212 174 131 144 137 130 130 117 111 190 189 231 121 189 192 139 168 166 144 147 164 160 109 355 99 136 147 154 172 35 6 59 139 150 169 204 225 250 229 329 131 166 194 193 159 151 168 174 128 136 105 102 69 53 91 29 89 113 75 235 242 233 174 196 279 275 192 168 227 185 230 242 241 245 250 253 254 261 265 250
189 189 188 180 188 187 173 198 192 154 147 138 127 130 125 158 193 181 212 199 78 278 119 164 159 147 161 163 154 141 95 147 149 140 137 135 175 161 123 123 75 143 160 180 204 207 2 110 145 218 134 75 117 111 71 127 142 129 97 111 100 34 54 59 9 116 217 248 245 219 177 184 224 298 350 209 263 224 186 222 243 244 254 254 254 255 257 259
189 186 184 182 179 153 190 192 159 158 146 143 136 148 155 192 209 211 171 125 163 194 167 131 151 154 156 162 158 167 165 139 168 161 158 170 164 175 174 180 153 190 178 181 188 173 230 208 211 134 159 138 137 116 34 126 150 130 113 129 156 200 149 221 142 205 200 225 317 139 141 233 226 250 231 268 221 253 210 218 226 236 251 256 260 262 267 257
185 183 180 183 167 175 203 161 133 158 151 150 148 155 184 188 209 142 121 143 252 164 186 158 162 159 163 151 183 160 152 171 161 176 152 178 161 194 183 183 183 177 177 179 180 173 205 132 199 133 156 168 148 158 151 163 183 161 169 165 172 185 192 222 202 215 234 260 249 137 169 229 284 278 250 252 248 249 247 233 240 243 251 260 267 268 261 252
186 180 181 181 182 185 161 159 150 155 156 156 150 157 192 210 201 91 135 149 160 32 146 159 146 146 155 177 166 164 158 191 165 173 169 162 171 180 202 195 162 107 74 144 186 171 176 208 220 161 200 176 177 178 174 174 172 187 170 178 186 177 186 210 196 208 207 222 228 201 115 222 149 236 317 209 255 247 255 257 253 252 254 254 254 260 268 272
185 189 177 177 188 178 142 177 159 159 159 159 168 184 195 193 125 148 137 153 111 139 140 144 144 148 166 154 170 170 152 168 182 157 186 167 193 189 177 179 185 145 120 138 273 168 215 221 202 176 50 177 183 172 167 127 166 195 175 162 190 207 155 214 176 193 193 192 226 228 206 189 221 336 288 181 167 267 243 267 258 255 254 256 263 260 262 263
177 179 161 173 180 167 156 161 172 164 162 166 181 196 200 170 169 186 162 146 148 149 133 134 151 146 161 136 141 170 81 103 160 173 171 189 189 195 172 167 183 183 163 165 143 178 87 229 155 157 168 182 186 165 174 146 193 170 150 208 199 191 186 103 45 92 74 92 243 147 284 282 299 285 270 271 239 227 206 242 249 249 256 276 272 273 266 259
170 149 175 171 183 157 156 150 165 164 164 179 191 205 173 19 286 125 159 159 160 141 146 154 172 153 161 150 157 166 182 95 164 175 189 162 218 192 169 41 177 183 197 151 50 249 175 224 30 130 177 203 184 163 172 191 115 133 206 189 65 59 108 167 213 122 170 201 239 181 225 245 228 277 304 227 232 283 179 230 242 261 292 285 268 259 253 253
158 160 169 181 163 150 154 158 163 168 174 180 203 133 29 135 229 157 143 131 125 163 150 152 142 164 162 158 172 167 178 171 168 171 228 172 256 152 155 164 223 185 169 171 154 211 117 279 249 227 168 116 47 121 183 253 330 186 188 151 159 185 215 212 151 218 166 207 251 243 214 241 197 249 254 250 146 141 209 279 285 269 263 259 261 263 261 258
142 142 181 171 145 151 149 154 173 172 182 192 193 176 235 71 163 213 164 156 154 156 160 194 136 211 161 179 159 169 164 184 166 180 171 199 182 188 180 133 197 160 169 150 168 154 75 199 18 236 146 159 143 157 195 185 212 340 60 161 103 81 238 177 203 133 148 226 189 253 176 244 202 230 248 241 250 244 258 244 226 233 239 245 251 260 268 271
148 123 203 145 145 145 151 155 180 188 196 201 188 171 124 119 201 251 230 154 156 153 217 151 174 149 178 173 164 166 186 178 172 185 187 171 191 198 176 172 153 178 160 195 153 150 128 153 219 103 334 145 195 175 198 180 182 191 172 169 166 202 304 125 252 199 173 196 219 241 252 211 229 211 240 248 237 207 223 237 232 235 246 251 256 261 267 271
140 122 102 154 153 143 151 165 196 199 184 32 78 136 149 148 146 209 130 34 100 8 161 163 160 170 162 139 173 176 167 171 173 175 183 176 183 169 233 173 151 168 154 170 139 178 93 175 187 139 176 201 201 196 236 196 184 181 181 191 186 176 177 181 226 148 202 194 203 197 245 246 260 202 195 214 227 213 228 225 240 245 249 255 263 265 258 264
155 170 178 172 151 149 157 181 201 92 119 174 173 147 147 143 145 187 108 6 74 139 5 94 20 131 155 168 161 171 164 172 178 175 204 177 203 202 190 172 165 149 156 176 180 207 146 140 115 187 206 196 121 7 164 191 225 215 196 199 187 192 167 205 227 199 138 225 272 242 304 254 219 176 190 174 203 217 232 172 229 247 245 251 257 262 272 273
177 122 36 295 161 158 163 196 72 159 75 68 90 49 116 131 142 222 144 222 106 151 86 104 183 137 212 122 151 145 156 172 175 189 180 179 194 190 194 142 141 157 132 154 111 206 66 113 131 246 329 323 320 191 55 22 100 179 254 294 187 194 191 204 215 185 193 167 213 232 253 264 267 182 149 158 170 235 252 201 225 254 269 271 269 279 286 303
85 100 141 333 175 160 180 184 170 159 98 65 87 104 28 171 150 163 170 185 132 161 142 149 71 329 149 130 147 163 167 143 241 151 164 164 150 249 142 143 153 166 156 191 167 175 171 209 171 152 175 106 308 327 306 341 328 242 204 209 209 216 213 239 72 70 158 210 195 188 236 244 265 97 84 61 40 63 253 266 198 246 270 265 275 285 297 301
109 38 32 24 14 174 191 150 150 137 143 130 123 124 131 46 300 214 156 167 57 140 122 109 178 145 66 155 146 132 165 124 149 212 78 200 154 8 164 159 166 167 175 180 171 161 199 154 169 198 187 194 204 204 214 215 210 197 263 215 208 211 204 175 224 191 232 177 186 209 237 242 256 45 306 20 358 336 291 233 242 230 249 273 281 283 286 292
152 140 264 30 23 81 63 337 102 142 141 139 131 158 147 135 350 26 83 17 145 84 70 131 33 98 96 121 116 145 166 335 144 188 162 169 168 266 224 179 176 172 185 164 153 153 166 199 188 195 204 217 223 234 29 80 65 158 218 200 199 201 206 212 216 218 211 131 209 210 228 268 274 263 261 289 154 257 266 277 260 254 254 265 271 271 266 273
57 135 165 151 49 13 136 116 121 130 158 155 148 153 163 151 137 84 323 99 269 130 87 49 159 135 194 138 149 158 167 90 349 146 188 161 261 207 9 186 185 192 142 133 161 106 91 196 213 200 216 228 227 222 192 170 169 190 176 206 212 213 224 234 217 216 75 197 247 27 4 300 267 281 281 272 230 253 268 261 271 279 263 242 250 268 285 283
146 232 51 344 140 175 132 195 146 137 86 90 124 150 157 151 160 151 50 353 113 324 119 23 156 160 167 164 152 155 170 148 133 180 171 111 106 148 105 355 183 185 148 160 174 149 148 195 213 188 220 226 229 224 153 162 181 185 198 197 196 202 202 207 224 230 212 220 249 185 171 247 266 268 268 264 242 236 250 263 240 230 247 271 271 280 289 289
84 133 104 115 86 294 188 159 151 139 133 146 106 168 158 161 168 162 150 148 146 253 89 141 183 171 169 151 149 150 164 140 231 242 169 178 172 152 131 61 279 209 151 145 146 188 143 224 203 195 215 227 235 225 149 157 199 200 213 217 211 198 204 205 221 222 209 219 223 229 194 215 231 251 259 265 256 224 219 216 25 258 249 244 255 270 274 281
196 124 180 39 95 90 86 123 137 137 143 177 139 210 167 167 164 128 29 144 145 191 302 150 173 173 170 168 166 166 185 191 181 183 207 160 151 158 173 172 144 131 162 155 153 294 152 227 169 155 199 239 241 240 165 200 197 224 226 225 218 208 206 207 218 221 214 230 234 231 230 242 244 246 259 271 120 255 298 262 235 232 245 250 262 266 269 280
331 267 260 120 88 111 94 141 148 153 139 233 164 170 183 180 167 160 160 278 173 166 180 180 171 168 171 172 184 188 187 196 189 179 160 162 181 204 145 239 139 137 134 121 109 346 108 271 78 128 186 241 235 226 200 202 215 234 241 230 237 192 217 212 220 216 211 213 219 231 238 244 255 251 276 288 267 246 235 232 255 260 262 267 265 272 279 284
272 212 146 94 87 107 136 135 146 132 181 185 169 173 175 190 167 145 130 7 14 276 191 164 154 140 172 171 195 200 191 160 122 116 147 98 87 124 126 165 153 155 161 170 158 136 160 170 134 165 193 231 239 190 201 169 320 264 229 225 214 218 214 221 226 221 221 208 218 219 230 233 247 278 304 268 253 252 254 247 245 249 243 252 262 265 269 294